sat.trackr.live / text

‹ back to catalog

STARLINK-30346

NORAD 57704 · 2023-129G

PAYLOAD ACTIVE UNKNOWN

§ Identity

Operator
Country
US
Launch date
2023-08-27
Launch site
AFETR
Launch vehicle
Mass (kg)
RCS (m²)

Purposes: comms

External: N2YO · Heavens-Above · Gunter

§ Orbital elements

Epoch: 2026-09-20T22:07:48.372096Z

Period
94.27 min
Inclination
43.0028°
Eccentricity
0.0000974
Mean motion
15.27575104 rev/d
Perigee alt
482.4 km
Apogee alt
483.7 km
Semi-major
6,861.2 km
B*
1.8684e-5
RAAN
95.1002°
Arg perigee
255.8621°
Mean anomaly
104.2122°
Rev number
17,040

§ Raw data

STARLINK-303461 57704U 23129G   26263.92208764  .00000252  00000+0  18684-4 0  99962 57704  43.0028  95.1002 0000974 255.8621 104.2122 15.27575104170409

JSON: /api/v1/satellites/57704 · /tle

For live sub-satellite position, see the globe view (requires WebGL).

§ Visibility from observer

Set your observer location to see the next 7 days of passes ≥ 10°. The values pass through the URL so the page stays shareable.

No JS? Fill the form by hand. The geolocation button needs JavaScript.